Starlink 6118

operational
NORAD ID: 57106 Int'l Des: 2023-090 Owner: SPXS Country: US Constellation: starlink
LEOCIRCULAR

Starlink 6118について

説明を読み込み中...

リアルタイム位置

3D地球を読み込み中...

次回通過

高度履歴

Altitude vs Time

uPlot chart will show altitude changes over time

軌道要素

1 57106U 23090F 26037.19824329 .00000673 00000-0 64878-4 0 9992
2 57106 43.0020 85.9856 0001096 267.2994 92.7723 15.02533769145670
Epoch: Feb 6, 2026 • Age: 13 hours

現在のステータス

高度 563.7 km
速度 7.58 km/s
衛星直下点 -21.84°S, 20.32°E
打ち上げ日 Jun 23, 2023
運用期間 2.6 years
タイプ internet

技術仕様

分類 Payload
質量 305.00 kg
乾燥質量 290.00 kg
総質量 305.00 kg
長さ 0.20 m
直径 2.80 m
スパン 9.00 m
形状 Box + pan
製造者 SPXS
バスタイプ Starlink
フェーズステータス In Orbit
所有者/国 SPXS/US

大規模コンステレーション

Loading constellations...